Time+07,TemperatureF,Dew PointF,Humidity,Sea Level PressureIn,VisibilityMPH,Wind Direction,Wind SpeedMPH,Gust SpeedMPH,PrecipitationIn,Events,Conditions,WindDirDegrees,DateUTC
12:00 AM,75.2,73.4,94,29.65,5.6,Calm,Calm,-,N/A,,Mostly Cloudy,0,2013-06-14 17:00:00
6:00 AM,75.2,73.4,94,29.62,5.6,Calm,Calm,-,N/A,,Overcast,0,2013-06-14 23:00:00
7:00 AM,77.0,75.2,94,29.62,5.6,West,1.2,-,N/A,,Mostly Cloudy,270,2013-06-15 00:00:00
7:30 AM,78.8,75.2,89,29.62,5.6,WSW,2.3,-,N/A,,Mostly Cloudy,250,2013-06-15 00:30:00
8:00 AM,78.8,75.2,89,29.65,5.6,Variable,2.3,-,N/A,,Mostly Cloudy,0,2013-06-15 01:00:00
8:30 AM,78.8,75.2,89,29.65,5.6,Variable,2.3,-,N/A,,Mostly Cloudy,0,2013-06-15 01:30:00
9:00 AM,80.6,75.2,84,29.65,6.2,Variable,2.3,-,N/A,,Mostly Cloudy,0,2013-06-15 02:00:00
9:30 AM,80.6,75.2,84,29.65,6.2,WSW,3.5,-,N/A,,Mostly Cloudy,240,2013-06-15 02:30:00
10:00 AM,80.6,75.2,84,29.65,6.2,West,5.8,-,N/A,,Mostly Cloudy,280,2013-06-15 03:00:00
10:30 AM,80.6,75.2,84,29.62,6.2,West,6.9,-,N/A,,Mostly Cloudy,280,2013-06-15 03:30:00
11:00 AM,80.6,75.2,84,29.62,6.2,WNW,4.6,-,N/A,,Mostly Cloudy,290,2013-06-15 04:00:00
11:30 AM,84.2,75.2,74,29.62,6.2,Variable,2.3,-,N/A,,Mostly Cloudy,0,2013-06-15 04:30:00
12:00 PM,86.0,75.2,70,29.59,6.2,Calm,Calm,-,N/A,,Mostly Cloudy,0,2013-06-15 05:00:00
12:30 PM,86.0,75.2,70,29.59,6.2,Variable,2.3,-,N/A,,Mostly Cloudy,0,2013-06-15 05:30:00
1:00 PM,86.0,75.2,70,29.59,6.2,West,6.9,-,N/A,,Mostly Cloudy,270,2013-06-15 06:00:00
1:30 PM,86.0,75.2,70,29.56,6.2,NW,5.8,-,N/A,,Scattered Clouds,320,2013-06-15 06:30:00
2:00 PM,87.8,75.2,66,29.53,6.2,NNW,10.4,-,N/A,,Scattered Clouds,330,2013-06-15 07:00:00
2:30 PM,87.8,73.4,62,29.53,6.2,NW,8.1,-,N/A,,Scattered Clouds,310,2013-06-15 07:30:00
3:00 PM,89.6,73.4,59,29.53,6.2,NW,8.1,-,N/A,,Scattered Clouds,310,2013-06-15 08:00:00
3:30 PM,89.6,75.2,62,29.53,6.2,NW,6.9,-,N/A,,Scattered Clouds,320,2013-06-15 08:30:00
4:00 PM,84.2,75.2,74,29.56,6.2,SW,12.7,-,N/A,,Scattered Clouds,230,2013-06-15 09:00:00
4:30 PM,82.4,75.2,79,29.56,6.2,South,11.5,-,N/A,,Scattered Clouds,190,2013-06-15 09:30:00
5:00 PM,80.6,75.2,84,29.56,6.2,SSW,11.5,-,N/A,,Scattered Clouds,200,2013-06-15 10:00:00
5:30 PM,80.6,75.2,84,29.56,6.2,South,10.4,-,N/A,,Scattered Clouds,190,2013-06-15 10:30:00
6:00 PM,80.6,73.4,79,29.56,6.2,SSW,10.4,-,N/A,,Scattered Clouds,200,2013-06-15 11:00:00
6:30 PM,80.6,73.4,79,29.59,6.2,SSW,8.1,-,N/A,,Scattered Clouds,200,2013-06-15 11:30:00
7:00 PM,80.6,73.4,79,29.59,6.2,SSW,6.9,-,N/A,,Scattered Clouds,200,2013-06-15 12:00:00
7:30 PM,80.6,75.2,84,29.62,6.2,SSW,6.9,-,N/A,,Scattered Clouds,210,2013-06-15 12:30:00
8:00 PM,80.6,75.2,84,29.62,6.2,SE,3.5,-,N/A,,Scattered Clouds,140,2013-06-15 13:00:00
8:30 PM,80.6,75.2,84,29.65,5.6,SSE,5.8,-,N/A,,Scattered Clouds,160,2013-06-15 13:30:00
9:30 PM,80.6,75.2,84,29.65,5.6,Variable,1.2,-,N/A,,Scattered Clouds,0,2013-06-15 14:30:00
10:00 PM,80.6,75.2,84,29.65,5.6,SE,1.2,-,N/A,,Scattered Clouds,130,2013-06-15 15:00:00
10:30 PM,80.6,75.2,84,29.65,5.6,Calm,Calm,-,N/A,,Scattered Clouds,0,2013-06-15 15:30:00
11:00 PM,80.6,75.2,84,29.65,5.6,Calm,Calm,-,N/A,,Scattered Clouds,0,2013-06-15 16:00:00
11:30 PM,78.8,75.2,89,29.65,5.6,Calm,Calm,-,N/A,,Scattered Clouds,0,2013-06-15 16:30:00